Tracking 19242 objects as of 16-Aug-2018
HD Live streaming from Space Station
objects crossing your sky now

FENGYUN 1C DEB

Track FENGYUN 1C DEB now!
10-day predictions


NORAD ID: 30128
Int'l Code: 1999-025SH
Perigee: 736.9 km
Apogee: 982.8 km
Inclination: 97.0 °
Period: 102.0 minutes
Semi major axis: 7230 km
RCS: 0.0187 m2 (small)
Launch date: May 10, 1999
Source: People's Republic of China (PRC)
Launch site: Taiyaun Space Center, China (TSC)

Note: This is SATELLITE DEBRIS
aabbcc
Your satellite tracking list
Your tracking list is empty




NASA's NSSDC Master Catalog

Two Line Element Set (TLE):
1 30128U 99025SH  18226.40340278  .00000824  00000-0  40786-3 0  9998
2 30128  96.9906  24.1099 0170068 276.8573 134.4555 14.11956046593203
Source of the keplerian elements: AFSPC